Location: Watson Lake
(60.1170°N, 128.8000°W)
Time: 15:27:54
(UTC-08:00)

Daily predictions for brighter satellites

Satellite Brightness Start Highest point End
(mag) Time Altitude Azimuth Time Altitude Azimuth Time Altitude Azimuth
Cosmos 1707 2.8 17:01:47 10° S 17:05:41 70° E 17:09:37 10° NNE
Aureole 2 Rocket 4.4 17:04:16 10° W 17:06:24 17° NW 17:08:28 10° N
METEOR-M 4.5 17:03:08 10° SE 17:08:10 43° ENE 17:13:13 10° N
Cosmos 2322 4.4 17:04:24 10° WSW 17:09:52 46° NNW 17:15:21 10° NE
SeaSat 1 3.5 17:05:03 10° SSE 17:09:54 53° WSW 17:14:46 10° NW
Cosmos 1697 Rocket 3.8 17:05:47 10° NW 17:10:35 28° N 17:15:23 10° ENE
NOSS 2-2 (C) 4.3 17:06:48 10° WNW 17:11:53 70° NNE 17:18:43 10° E
Cosmos 1356 4.1 17:08:57 10° SSW 17:12:23 56° WNW 17:15:50 10° N
Nadezhda 1 Rocket 4.5 17:06:49 10° SSE 17:12:38 42° E 17:18:33 10° NNE
Cosmos 2237 Rocket 2.3 17:08:03 10° SSW 17:13:45 82° SE 17:19:27 10° NE
Meteor 2-10 4.3 17:10:16 10° N 17:15:04 41° ENE 17:19:50 10° SE
Cosmos 1354 Rocket 4.1 17:09:52 10° NNW 17:15:13 88° SW 17:20:33 10° SSE
Cosmos 2341 Rocket 4.2 17:09:53 10° N 17:15:58 51° ENE 17:22:05 10° SE
SJ-7 4.4 17:12:01 10° SSE 17:16:08 69° ENE 17:20:20 10° NNW
Cosmos 1238 Rocket 4.3 17:11:27 10° SSW 17:17:16 56° WNW 17:22:08 10° N
Cosmos 1953 Rocket 3.6 17:15:56 10° S 17:20:18 69° E 17:24:40 10° NNE
Cosmos 1674 4.0 17:18:19 10° SE 17:21:11 21° E 17:24:03 10° NE
Cosmos 909 Rocket 4.5 17:13:26 10° WNW 17:21:36 65° NNE 17:28:15 10° ESE
SMAP 3.0 17:19:14 10° SSE 17:23:52 72° ENE 17:28:33 10° NNW
Cosmos-2242 3.6 17:20:08 10° NNW 17:24:22 61° W 17:28:34 10° S
Cosmos 1356 Rocket 4.3 17:21:09 10° SW 17:25:13 50° WNW 17:29:24 10° N
Cosmos 2263 4.3 17:19:58 10° NW 17:25:49 90° SW 17:31:37 10° SE
Cosmos 921 Rocket 3.7 17:22:38 10° SW 17:26:46 51° NW 17:30:59 10° NNE
SJ-6B 4.5 17:26:37 10° ENE 17:28:34 14° NE 17:30:30 10° NNE
Cosmos 1420 Rocket 4.4 17:24:44 10° SW 17:29:53 62° NW 17:35:04 10° NNE
CZ-4 R/B 1.5 17:26:07 10° SSE 17:30:18 61° ENE 17:34:31 10° NNW
NOSS 0 Rocket 4.0 17:24:17 10° SW 17:30:29 82° NW 17:36:42 10° NE
CZ-2C R/B 3.5 17:26:32 10° S 17:31:05 47° W 17:35:34 10° NNW
Cosmos 2322 Rocket 3.4 17:26:18 10° WNW 17:31:17 30° NNW 17:36:14 10° NE
Meteor 2-1 Rocket 4.3 17:26:06 10° NNW 17:31:52 89° WSW 17:37:43 10° SSE
Ariane Rocket 3.0 17:27:33 10° SSE 17:32:38 81° ENE 17:37:45 10° NNW
Cosmos 2154 Rocket 4.0 17:26:53 10° NNW 17:33:13 79° ENE 17:39:33 10° SSE
Cosmos 1300 3.3 17:31:59 10° N 17:35:32 33° ENE 17:39:03 10° SE
Cosmos 2369 Rocket 2.7 17:30:18 10° NW 17:35:56 68° WSW 17:41:34 10° SSE
SPOT 3 Rocket 3.9 17:31:45 10° SE 17:36:34 41° ENE 17:41:25 10° NNW
RESURS DK-1 3.7 17:34:27 10° NW 17:37:55 24° NNE 17:40:37 14° ENE
USA 161 1.2 17:36:53 10° NNE 17:39:21 48° E 17:41:36 10° S
Meteor 1-24 Rocket 3.9 17:34:36 10° S 17:40:17 61° E 17:46:11 10° NNE
IRAS Rocket 4.3 17:34:56 10° SSE 17:40:31 89° ENE 17:46:10 10° NNW
Cosmos 1809 Rocket 4.4 17:35:03 10° NNW 17:41:13 78° ENE 17:47:19 10° SSE
Meteor 2-5 Rocket 3.8 17:35:56 10° S 17:41:49 83° ESE 17:47:49 10° NNE
Genesis I 3.7 17:38:32 10° W 17:42:27 50° NNW 17:45:40 15° ENE
Cosmos 2344 4.0 17:35:06 10° WSW 17:43:08 82° NNW 17:52:34 13° ENE
IDEFIX/ARIANE 42P 4.4 17:38:39 10° SSW 17:43:24 34° W 17:48:12 10° NNW
Cosmos 1777 Rocket 4.2 17:38:24 10° NNW 17:43:31 50° NE 17:48:37 10° ESE
In-Cosmos 22 4.2 17:38:27 10° S 17:43:40 59° E 17:48:59 10° NNE
Cosmos 1484 Rocket 3.0 17:42:29 10° S 17:46:16 70° WSW 17:50:02 10° NNW
YAOGAN 1 2.5 17:43:06 10° SSE 17:47:24 65° ENE 17:51:43 10° NNW
Meteor 2-16 Rocket 4.4 17:43:17 10° NNW 17:49:22 63° ENE 17:55:26 10° SSE
Cosmos 1331 Rocket 4.0 17:44:34 10° SSW 17:49:44 76° ESE 17:54:58 10° NE
Cosmos 2219 Rocket 2.8 17:44:34 10° WSW 17:50:06 51° NW 17:55:29 11° NE
Cosmos 1302 Rocket 4.2 17:45:32 10° S 17:50:41 53° ESE 17:55:40 11° NE
Meteor 2-21 Rocket 4.4 17:44:39 10° NNW 17:50:50 73° ENE 17:56:55 10° SSE
SL-16 R/B 3.4 17:46:06 10° WNW 17:51:01 29° N 17:55:14 13° NE
Cosmos 1151 Rocket 4.3 17:48:01 10° N 17:51:18 20° NE 17:53:45 13° E
CORIOLIS 4.3 17:46:05 10° SSE 17:51:27 83° WSW 17:56:51 10° NNW
Cosmos 1656 Rocket 3.6 17:45:59 10° NW 17:51:27 70° NE 17:56:56 10° SE
Cosmos 1758 Rocket 4.0 17:47:11 10° SSW 17:51:35 65° WNW 17:56:04 10° N
FREGAT/IRIS 4.4 17:54:05 16° NE 17:54:05 16° NE 17:55:20 10° NNE
Cosmos 1943 Rocket 2.5 17:48:58 10° NW 17:54:36 70° WSW 18:00:09 10° SSE
Cosmos 1346 Rocket 3.7 17:52:06 10° N 17:55:33 28° ENE 17:58:59 10° ESE
USA 215 3.5 17:49:40 12° E 17:55:48 64° SSE 18:02:19 10° WSW
MONITOR-E 4.4 17:53:44 10° SE 17:56:40 43° ENE 17:59:36 10° N
GEOS 3 Rocket 3.8 17:51:25 10° SE 17:56:48 83° SW 18:02:16 10° WNW
Meteor 2-21 4.5 17:50:58 10° NNW 17:57:09 89° ENE 18:03:14 10° SSE
Cosmos 1825 Rocket 4.4 17:53:10 10° SW 17:57:24 50° WNW 18:01:43 10° N
CSL-04 Rocket 4.2 17:52:16 10° S 17:57:47 65° WSW 18:03:17 10° NNW
ERBS 3.0 17:55:48 10° WSW 17:59:08 50° S 18:01:44 15° ESE
ERS-2 2.6 17:57:03 10° SE 18:00:31 39° ENE 18:04:00 10° N
Cosmos 1908 3.7 17:58:05 10° NNW 18:01:59 64° W 18:05:50 10° S
Cosmos 2098 Rocket 4.0 17:58:15 10° N 18:02:07 30° ENE 18:06:49 10° SE
Cosmos 2221 2.4 17:58:18 10° NNW 18:02:41 80° ENE 18:07:04 10° SSE
Cosmos 1980 4.1 17:58:08 10° WSW 18:03:44 59° NW 18:08:53 13° NE
Cosmos 2360 Rocket 3.4 17:59:17 10° W 18:04:20 31° NNW 18:08:38 13° NE
SL-8 Rocket 3.9 17:58:23 10° NNW 18:04:33 67° ENE 18:10:44 10° SSE
Meteor 1-28 Rocket 3.4 18:01:19 10° NNE 18:05:04 50° E 18:08:48 10° S
Resurs 01 Rocket 3.0 18:05:00 18° ENE 18:05:34 19° NE 18:08:36 10° N
Cosmos 2218 Rocket 4.0 17:59:32 10° N 18:05:42 61° ENE 18:11:47 10° SSE
Lacrosse 4 Rocket 1.3 18:02:10 10° SW 18:06:16 84° SE 18:09:06 19° NE
ALOS 2.2 18:03:13 10° SSE 18:07:51 67° ENE 18:12:31 10° NNW
Cosmos 1980 Rocket 3.3 18:02:57 10° NW 18:07:54 29° N 18:11:05 18° ENE
Cosmos 2333 Rocket 2.9 18:03:26 10° WSW 18:09:02 49° NW 18:14:00 13° NE
Cosmos 1515 Rocket 4.4 18:06:24 10° N 18:10:10 27° ENE 18:12:54 15° ESE
Cosmos 1898 Rocket 4.3 18:06:31 10° NNW 18:11:20 32° NE 18:14:14 20° E
Cosmos 968 Rocket 3.8 18:07:23 10° NW 18:12:35 70° WSW 18:17:41 10° SSE
NOAA 12 4.0 18:08:53 10° SSE 18:14:06 71° ENE 18:19:22 10° NNW
COSMOS 2428 3.8 18:09:14 10° W 18:14:34 37° NNW 18:19:04 14° NE
Cosmos 1959 Rocket 4.5 18:08:34 10° NNW 18:14:52 67° ENE 18:21:11 10° SSE
COSMO-SKYMED 1 3.2 18:13:41 16° NE 18:16:36 33° E 18:20:33 10° SSE
Cosmos 2228 Rocket 3.8 18:14:10 10° N 18:18:19 33° ENE 18:22:28 10° SE
Cosmos 2278 4.3 18:13:51 10° NW 18:19:11 38° NNE 18:22:19 22° E
SL-08 R/B 4.4 18:16:31 10° N 18:22:47 65° ENE 18:28:55 10° SSE
KORONAS-FOTON 3.8 18:19:27 10° S 18:23:09 54° E 18:26:02 16° NNE
Cosmos 1726 2.6 18:20:53 10° NNW 18:24:33 62° W 18:28:10 10° S
SJ 16-02 3.3 18:22:20 10° NNW 18:24:51 15° NNE 18:25:30 14° NNE
Cosmos 1110 Rocket 4.3 18:19:42 10° SW 18:24:51 66° NW 18:29:28 13° NNE
H-2A R/B 2.9 18:22:08 10° SE 18:25:50 47° ENE 18:29:35 10° N
SL-24 R/B - RUBIN 2 4.4 18:22:21 10° WNW 18:27:05 53° SW 18:31:24 10° SSE
FENGYUN 3A 3.6 18:22:06 10° SSE 18:27:29 88° ENE 18:32:55 10° NNW
Meteor 1-21 Rocket 4.4 18:23:50 10° S 18:29:37 58° E 18:35:26 10° NNE
Meteor 2-2 Rocket 4.2 18:24:25 10° NNW 18:30:18 72° ENE 18:36:01 10° SSE
Cosmos 1400 Rocket 3.2 18:27:14 10° SSE 18:31:06 42° E 18:33:04 25° NE
SL-16 R/B 4.3 18:26:12 10° NNE 18:31:06 25° NW 18:36:00 10° W
FengYun 1-2 T 4.2 18:26:21 10° SE 18:31:54 62° ENE 18:37:25 10° NNW
ATLAS 5 CENTAUR R/B 2.1 18:27:28 10° W 18:32:29 69° NNW 18:35:43 26° ENE
Cosmos 2369 4.2 18:27:02 10° NW 18:32:31 42° NNE 18:35:20 25° E
Cosmos 1455 2.8 18:30:50 10° N 18:34:27 35° ENE 18:34:52 34° E
SL-16 R/B 2.4 18:29:42 10° SW 18:35:25 71° NW 18:39:47 18° NE
Cosmos 1867 3.6 18:32:41 10° SW 18:38:05 67° SE 18:41:02 28° ENE
USA 116 3.7 18:36:16 18° NNE 18:39:03 67° ESE 18:43:23 10° S
Cosmos 1461 3.0 18:37:00 10° SW 18:41:27 89° SSE 18:43:37 32° ENE
CZ-2C R/B 3.7 18:36:53 10° NNE 18:41:40 66° ESE 18:46:22 10° S
EO 1 Del DPAF 4.1 18:42:19 31° ESE 18:42:19 31° ESE 18:45:12 10° SSE
NOSS 2-1 (E) 4.4 18:38:25 10° S 18:41:54 30° SE 18:42:32 29° ESE
Cosmos 2366 rocket 4.0 18:39:12 10° NNW 18:45:33 89° ENE 18:51:48 10° SSE
Cosmos 1328 Rocket 3.5 18:41:12 10° N 18:45:36 58° ENE 18:49:55 10° SSE
Envisat 3.3 18:43:32 23° ESE 18:46:13 41° ENE 18:50:59 10° N
Cosmos 1076 Rocket 3.6 18:42:27 10° S 18:46:43 54° E 18:49:19 22° NNE
NOSS 3-4 (A) 4.4 18:41:43 10° WNW 18:48:20 57° SW 18:55:27 10° SSE
NOSS 3-4 (C) 4.4 18:41:49 10° WNW 18:48:26 57° SW 18:55:34 10° SSE
Cosmos 1603 3.7 18:43:07 10° SSW 18:48:52 74° SE 18:52:26 24° NE
Cosmos 1943 3.4 18:44:01 10° SSW 18:49:26 51° ESE 18:51:57 30° ENE
Cosmos 1821 Rocket 4.1 18:46:19 10° N 18:52:14 48° ENE 18:58:11 10° SE
Landsat 4 3.8 18:55:04 51° E 18:55:20 52° ESE 18:59:00 10° S
Cosmos 1697 Rocket 3.2 18:50:38 10° NW 18:55:57 40° NNE 18:57:31 33° ENE
Meteor 2-8 Rocket 4.5 18:50:09 10° S 18:56:08 55° E 19:02:09 10° NNE
Cosmos 1674 3.2 18:52:44 10° SSW 18:56:28 59° WNW 18:59:36 14° N
Cosmos 2237 Rocket 3.2 18:53:01 10° W 18:58:21 40° NNW 19:01:55 20° NNE
CZ-2D R/B 3.8 19:01:24 41° NNE 19:01:24 41° NNE 19:04:25 10° N
SJ-6B 2.6 19:02:15 57° E 19:02:35 60° ENE 19:06:20 10° NNW
NOSS 3-3 (A) 4.4 18:57:29 10° SSW 19:03:31 49° SE 19:06:04 34° E
NOSS 3-3 (C) 4.4 18:57:36 10° SSW 19:03:38 49° SE 19:06:10 34° E
Okean 3 Rocket 3.5 18:59:58 10° S 19:04:31 77° E 19:07:40 20° NNE
SKYMED 2 3.4 19:02:17 24° NNE 19:04:55 76° ESE 19:09:17 10° SSW
CZ-4 R/B 3.8 19:02:05 10° SSW 19:05:40 26° W 19:09:17 10° NW
Cosmos 1766 Rocket 3.6 19:02:00 10° S 19:06:03 50° ESE 19:06:03 50° ESE
TIMED 4.4 19:02:06 10° NNW 19:06:31 88° WSW 19:09:05 25° SSE
USA 161 4.2 19:07:00 10° NNW 19:08:25 14° WNW 19:09:46 10° W
H-2A R/B 3.8 19:10:26 17° NNE 19:10:26 17° NNE 19:12:26 10° N
Cosmos 1937 Rocket 3.8 19:05:03 10° NNW 19:10:06 46° NE 19:10:49 43° ENE
Cosmos 1300 4.2 19:07:43 10° NNW 19:11:18 37° W 19:14:51 10° SSW
Cosmos 1656 3.8 19:06:31 10° NW 19:11:51 52° NE 19:13:03 44° E
Nadezhda 3 Rocket 4.3 19:07:04 10° SSE 19:12:57 42° E 19:18:54 10° NNE
SL-14 R/B 3.1 19:11:50 10° S 19:15:49 85° ESE 19:16:38 55° NNE
SPOT 3 Rocket 4.4 19:10:54 10° S 19:15:56 52° W 19:21:01 10° NNW
RESURS DK-1 2.6 19:12:40 10° NW 19:16:33 52° NNE 19:16:33 52° NNE
Cosmos 2322 Rocket 3.3 19:11:55 10° NW 19:16:56 30° NNE 19:18:03 28° NE
Resurs 1-3 4.2 19:18:59 41° NNE 19:18:59 41° NNE 19:22:17 10° N
Cosmos 2150 Rocket 4.3 19:14:27 10° NNW 19:19:28 45° NE 19:19:39 45° NE
Genesis I 3.8 19:16:45 10° WNW 19:20:38 47° N 19:20:38 47° N
ARGOS 4.4 19:22:10 25° NNE 19:22:10 25° NNE 19:25:29 10° N
Cosmos 1151 Rocket 2.9 19:25:06 10° NNW 19:29:32 88° ENE 19:30:42 49° SSE
Cosmos 1340 4.3 19:26:17 10° NNW 19:27:54 24° N 19:27:54 24° N
Cosmos 1346 Rocket 3.6 19:28:21 10° NNW 19:32:13 51° W 19:36:01 10° S
ERS-2 3.9 19:30:54 10° SSW 19:34:15 32° W 19:37:39 10° NNW
Cosmos 1605 Rocket 4.0 19:28:30 10° N 19:34:33 50° ENE 19:34:50 50° ENE
Cosmos 2219 Rocket 3.6 19:30:19 10° WNW 19:35:16 29° N 19:37:13 24° NNE
ERBS 3.9 19:32:16 10° W 19:34:58 31° SW 19:34:58 31° SW
Cosmos 1934 Rocket 3.9 19:29:19 10° NNW 19:35:40 66° ENE 19:38:30 34° SE
Cosmos 1315 Rocket 3.7 19:31:58 10° SSW 19:34:31 39° S 19:34:31 39° S
SL-16 R/B 3.1 19:31:35 10° NW 19:36:41 32° NNE 19:37:06 32° NNE
Cosmos 2181 Rocket 4.5 19:31:29 10° SSW 19:37:53 64° WNW 19:44:17 10° N
USA 215 3.3 19:37:00 42° ESE 19:39:18 69° S 19:45:51 10° W
Spot 2 Rocket 3.4 19:40:28 64° NE 19:40:28 64° NE 19:45:16 10° NNW
Resurs 01 Rocket 2.1 19:42:34 47° N 19:42:34 47° N 19:45:50 10° NNW
Geosat 4.3 19:41:38 41° NNE 19:43:19 66° NW 19:48:18 10° SW
Cosmos 2098 Rocket 3.9 19:39:22 10° NNW 19:43:40 59° W 19:49:08 10° S
Lacrosse 4 Rocket 2.5 19:41:33 10° W 19:45:21 35° NNW 19:45:27 35° NNW
Cosmos 1992 Rocket 4.1 19:40:12 10° SW 19:45:25 71° NW 19:47:06 43° NNE
ALOS 4.4 19:41:45 10° SSW 19:45:43 27° W 19:49:43 10° NNW
Cosmos 1515 Rocket 3.9 19:44:04 10° NNW 19:48:24 62° W 19:50:10 33° SSW
Cosmos 2239 Rocket 4.4 19:43:04 10° NNW 19:49:16 89° WSW 19:55:22 10° S
Meteor 2-10 Rocket 3.8 19:44:33 10° NNW 19:48:47 53° NNE 19:48:47 53° NNE
Cosmos 2360 Rocket 3.4 19:45:00 10° NW 19:49:55 29° N 19:50:24 28° NNE
COSMO-SKYMED 1 3.4 19:50:53 27° N 19:52:58 49° WNW 19:57:10 10° SW
Cosmos 1980 Rocket 2.5 19:47:34 10° NW 19:52:52 50° NNE 19:52:52 50° NNE
Cosmos 1898 Rocket 3.4 19:48:41 10° NNW 19:54:05 89° SW 19:54:33 75° SSE
Cosmos 2333 Rocket 3.5 19:49:33 10° WNW 19:54:35 30° N 19:56:00 26° NNE
Cosmos 2228 Rocket 3.9 19:52:19 10° NNW 19:56:46 52° W 20:01:00 11° S
Meteor 1-11 4.1 19:52:05 10° S 19:57:43 83° ESE 19:58:47 60° NNE
Cosmos 2344 4.1 19:49:51 10° WNW 19:58:30 77° NNE 20:02:35 44° E
Cosmos 1408 Rocket 4.4 19:55:39 10° SSW 19:58:40 43° SW 19:58:40 43° SW
COSMOS 2428 4.0 19:55:23 10° WNW 20:00:19 28° N 20:01:05 27° NNE
NOSS 2-1 (C) 4.3 19:59:00 10° SW 20:01:46 45° SW 20:01:46 45° SW
NOSS 2-1 (D) 4.3 19:59:40 10° WSW 20:02:26 46° SW 20:02:26 46° SW
Cosmos 2278 3.6 19:58:14 10° NW 20:04:00 89° NE 20:04:15 83° SE
SJ 16-02 3.3 20:00:49 10° NNW 20:02:31 20° N 20:02:31 20° N
Cosmos 858 Rocket 4.5 20:00:48 10° NNW 20:05:55 83° WNW 20:05:55 83° WNW
Cosmos 1400 Rocket 4.4 20:03:57 10° SW 20:07:43 34° WNW 20:08:45 30° NNW
Cosmos 1455 3.7 20:06:34 10° NNW 20:09:56 36° W 20:09:56 36° W
Cosmos 2369 3.7 20:11:25 10° NW 20:17:11 77° SW 20:17:18 77° SW
ATLAS 5 CENTAUR R/B 2.3 20:12:26 10° WNW 20:17:15 63° NNW 20:17:15 63° NNW
SL-16 R/B 3.4 20:15:16 10° W 20:20:25 33° NNW 20:21:40 30° N
Cosmos 1461 4.2 20:16:36 10° W 20:20:03 42° NW 20:20:03 42° NW
Cosmos 990 Rocket 4.3 20:16:21 10° NW 20:20:52 64° NW 20:20:52 64° NW
Cosmos 1867 3.9 20:16:28 10° W 20:21:43 60° NNW 20:21:43 60° NNW
Terra 4.4 20:27:31 11° N 20:27:31 11° N 20:27:46 10° N
Envisat 3.8 20:23:43 38° SSW 20:25:14 50° W 20:30:12 10° NNW
Cosmos 2298 Rocket 4.5 20:25:53 10° NW 20:30:14 58° NW 20:30:14 58° NW
Cosmos 1943 3.7 20:28:01 10° WSW 20:33:33 55° NW 20:33:48 54° NNW
Cosmos 1697 Rocket 3.1 20:34:47 10° NW 20:39:16 57° NW 20:39:16 57° NW
Cosmos 2237 Rocket 3.7 20:38:59 10° WNW 20:43:44 28° N 20:43:44 28° N
H-2A R/B 4.0 20:51:03 20° N 20:51:03 20° N 20:52:35 10° NNW
NOSS 3-3 (A) 4.2 20:47:42 10° WSW 20:53:32 73° W 20:53:32 73° W
NOSS 3-3 (C) 4.2 20:47:48 10° WSW 20:53:37 72° W 20:53:37 72° W
Cosmos 2322 Rocket 3.5 20:56:31 10° NW 20:59:53 34° NNW 20:59:53 34° NNW
Resurs 01 Rocket 4.2 21:20:08 19° WNW 21:20:08 19° WNW 21:21:57 10° NW
Cosmos 2219 Rocket 4.0 21:15:46 10° NW 21:18:56 25° NNW 21:18:56 25° NNW
SL-16 R/B 3.7 21:16:05 10° NW 21:18:59 31° NNW 21:18:59 31° NNW
USA 215 4.1 21:24:21 42° WSW 21:24:21 42° WSW 21:29:16 10° WNW
Cosmos 2360 Rocket 4.0 21:29:38 10° NW 21:32:10 25° NNW 21:32:10 25° NNW
Cosmos 1980 Rocket 3.9 21:31:46 10° NW 21:34:38 30° NW 21:34:38 30° NW
Cosmos 2333 Rocket 4.1 21:35:12 10° NW 21:38:01 24° NNW 21:38:01 24° NNW
SJ 16-02 4.5 21:39:23 10° NW 21:39:31 11° NW 21:39:31 11° NW
ATLAS 5 CENTAUR R/B 4.3 21:57:09 10° WNW 21:58:48 21° WNW 21:58:48 21° WNW
SL-16 R/B 4.4 22:01:11 10° NW 22:03:33 21° NNW 22:03:33 21° NNW
Cosmos 2344 4.4 22:04:12 10° WNW 22:12:37 67° WSW 22:12:37 67° WSW
